Location: Poughquag
(41.6090°N, 73.6820°W)
Time: 18:30:16
(UTC-04:00)

MOZHAYETS 4 - Pass Details

Date: 13 August 2024
Orbit: 650 x 668 km, 98.3° (Epoch: 15 September)

Event Time Altitude Azimuth Distance (km) Brightness Sun altitude
Exits shadow 05:03:19 - 188° (S) 2,928 10.7 -10.7°
Reaches altitude 10° 05:05:32 10° 197° (SSW) 2,088 9.8 -10.4°
Maximum altitude 05:09:41 34° 263° (W) 1,095 8.4 -9.7°
Drops below altitude 10° 05:13:53 10° 328° (NNW) 2,106 10.3 -9.0°
Sets 05:16:18 0° 338° (NNW) 3,024 11.2 -8.6°
